Time,TemperatureF,DewpointF,PressureIn,WindDirection,WindDirectionDegrees,WindSpeedMPH,WindSpeedGustMPH,Humidity,HourlyPrecipIn,Conditions,Clouds,dailyrainin,SoftwareType,DateUTC
2013-05-02 00:01:00,45.5,35.0,30.48,WSW,247,1.2,3.3,64,0.00,,,0.00,Rainwise IP-100,2013-05-02 04:01:00,
2013-05-02 00:06:00,45.5,33.0,30.47,WSW,247,1.6,2.3,62,0.00,,,0.00,Rainwise IP-100,2013-05-02 04:06:00,
2013-05-02 00:11:00,45.7,33.0,30.47,WSW,247,1.2,2.3,60,0.00,,,0.00,Rainwise IP-100,2013-05-02 04:11:00,
2013-05-02 00:16:00,46.0,32.0,30.47,WSW,247,1.2,2.8,59,0.00,,,0.00,Rainwise IP-100,2013-05-02 04:16:00,
2013-05-02 00:21:00,45.9,32.0,30.47,WSW,247,1.2,2.1,59,0.00,,,0.00,Rainwise IP-100,2013-05-02 04:21:00,
2013-05-02 00:26:00,45.7,32.0,30.47,WSW,247,1.2,1.6,59,0.00,,,0.00,Rainwise IP-100,2013-05-02 04:26:00,
2013-05-02 00:31:00,45.7,32.0,30.47,WSW,247,1.6,3.0,58,0.00,,,0.00,Rainwise IP-100,2013-05-02 04:31:00,
2013-05-02 00:36:00,46.0,32.0,30.47,WSW,247,1.4,2.3,58,0.00,,,0.00,Rainwise IP-100,2013-05-02 04:36:00,
2013-05-02 00:41:00,46.3,32.0,30.48,WSW,247,1.9,3.7,57,0.00,,,0.00,Rainwise IP-100,2013-05-02 04:41:00,
2013-05-02 00:46:00,46.2,32.0,30.47,WSW,247,1.4,2.1,57,0.00,,,0.00,Rainwise IP-100,2013-05-02 04:46:00,
2013-05-02 00:51:00,46.2,32.0,30.47,WSW,247,1.4,2.1,58,0.00,,,0.00,Rainwise IP-100,2013-05-02 04:51:00,
2013-05-02 00:56:00,46.1,32.0,30.47,WSW,247,1.6,2.6,58,0.00,,,0.00,Rainwise IP-100,2013-05-02 04:56:00,
2013-05-02 01:01:00,46.1,32.0,30.47,WSW,247,1.6,2.6,58,0.00,,,0.00,Rainwise IP-100,2013-05-02 05:01:00,
2013-05-02 01:06:00,46.1,32.0,30.47,WSW,247,1.9,3.5,59,0.00,,,0.00,Rainwise IP-100,2013-05-02 05:06:00,
2013-05-02 01:11:00,46.2,32.0,30.47,WSW,247,1.6,3.5,59,0.00,,,0.00,Rainwise IP-100,2013-05-02 05:11:00,
2013-05-02 01:16:00,46.3,32.0,30.47,WSW,247,2.6,3.0,59,0.00,,,0.00,Rainwise IP-100,2013-05-02 05:16:00,
2013-05-02 01:21:00,46.4,32.0,30.46,WSW,247,1.6,2.8,59,0.00,,,0.00,Rainwise IP-100,2013-05-02 05:21:00,
2013-05-02 01:26:00,46.4,32.0,30.46,WSW,247,1.2,2.1,59,0.00,,,0.00,Rainwise IP-100,2013-05-02 05:26:00,
2013-05-02 01:31:00,46.4,32.0,30.46,WSW,247,1.6,2.8,59,0.00,,,0.00,Rainwise IP-100,2013-05-02 05:31:00,
2013-05-02 01:36:00,46.4,32.0,30.46,WSW,247,2.8,3.5,58,0.00,,,0.00,Rainwise IP-100,2013-05-02 05:36:00,
2013-05-02 01:41:00,46.5,32.0,30.46,WSW,247,1.4,3.5,57,0.00,,,0.00,Rainwise IP-100,2013-05-02 05:41:00,
2013-05-02 01:46:00,46.7,32.0,30.47,WSW,247,1.6,3.5,57,0.00,,,0.00,Rainwise IP-100,2013-05-02 05:46:00,
2013-05-02 01:51:00,46.7,32.0,30.46,WSW,247,1.4,3.3,57,0.00,,,0.00,Rainwise IP-100,2013-05-02 05:51:00,
2013-05-02 01:56:00,46.7,32.0,30.46,WSW,247,2.1,3.5,57,0.00,,,0.00,Rainwise IP-100,2013-05-02 05:56:00,
2013-05-02 02:01:00,46.7,32.0,30.47,WSW,247,1.9,3.5,56,0.00,,,0.00,Rainwise IP-100,2013-05-02 06:01:00,
2013-05-02 02:06:00,46.5,33.0,30.46,WSW,247,1.4,4.0,60,0.00,,,0.00,Rainwise IP-100,2013-05-02 06:06:00,
2013-05-02 02:11:00,45.9,35.0,30.46,WSW,247,2.1,3.5,65,0.00,,,0.00,Rainwise IP-100,2013-05-02 06:11:00,
2013-05-02 02:16:00,45.7,35.0,30.46,WSW,247,2.6,4.2,63,0.00,,,0.00,Rainwise IP-100,2013-05-02 06:16:00,
2013-05-02 02:21:00,46.0,33.0,30.46,WSW,247,1.9,4.2,60,0.00,,,0.00,Rainwise IP-100,2013-05-02 06:21:00,
2013-05-02 02:26:00,46.3,32.0,30.46,WSW,247,2.1,3.5,58,0.00,,,0.00,Rainwise IP-100,2013-05-02 06:26:00,
2013-05-02 02:31:00,46.2,32.0,30.46,WSW,247,2.8,3.0,59,0.00,,,0.00,Rainwise IP-100,2013-05-02 06:31:00,
2013-05-02 02:36:00,45.8,33.0,30.46,WSW,247,1.2,4.9,60,0.00,,,0.00,Rainwise IP-100,2013-05-02 06:36:00,
2013-05-02 02:37:00,45.7,33.0,30.46,WSW,247,3.0,4.9,60,0.00,,,0.00,Rainwise IP-100,2013-05-02 06:37:00,
2013-05-02 02:42:00,45.8,33.0,30.45,WSW,247,2.6,4.4,60,0.00,,,0.00,Rainwise IP-100,2013-05-02 06:42:00,
2013-05-02 02:47:00,46.2,32.0,30.46,WSW,247,3.5,4.4,59,0.00,,,0.00,Rainwise IP-100,2013-05-02 06:47:00,
2013-05-02 02:52:00,46.4,32.0,30.45,WSW,247,2.3,4.4,59,0.00,,,0.00,Rainwise IP-100,2013-05-02 06:52:00,
2013-05-02 02:57:00,46.6,33.0,30.45,WSW,247,3.0,4.4,58,0.00,,,0.00,Rainwise IP-100,2013-05-02 06:57:00,
2013-05-02 03:02:00,46.8,32.0,30.45,WSW,247,1.9,4.2,57,0.00,,,0.00,Rainwise IP-100,2013-05-02 07:02:00,
2013-05-02 03:07:00,46.9,32.0,30.45,WSW,247,2.6,4.4,56,0.00,,,0.00,Rainwise IP-100,2013-05-02 07:07:00,
2013-05-02 03:12:00,47.0,32.0,30.45,WSW,247,2.3,3.3,55,0.00,,,0.00,Rainwise IP-100,2013-05-02 07:12:00,
2013-05-02 03:17:00,46.9,31.0,30.45,WSW,247,1.6,4.0,54,0.00,,,0.00,Rainwise IP-100,2013-05-02 07:17:00,
2013-05-02 03:22:00,46.9,31.0,30.45,WSW,247,1.2,3.0,54,0.00,,,0.00,Rainwise IP-100,2013-05-02 07:22:00,
2013-05-02 03:27:00,46.9,31.0,30.45,WSW,247,3.3,4.2,53,0.00,,,0.00,Rainwise IP-100,2013-05-02 07:27:00,
2013-05-02 03:32:00,47.1,31.0,30.45,WSW,247,2.1,4.0,52,0.00,,,0.00,Rainwise IP-100,2013-05-02 07:32:00,
2013-05-02 03:37:00,47.3,31.0,30.45,WSW,247,1.4,2.8,51,0.00,,,0.00,Rainwise IP-100,2013-05-02 07:37:00,
2013-05-02 03:42:00,47.1,31.0,30.45,WSW,247,1.2,2.8,52,0.00,,,0.00,Rainwise IP-100,2013-05-02 07:42:00,
2013-05-02 03:47:00,46.8,31.0,30.45,WSW,247,0.0,2.1,53,0.00,,,0.00,Rainwise IP-100,2013-05-02 07:47:00,
2013-05-02 03:52:00,46.4,31.0,30.45,WSW,247,0.0,0.0,54,0.00,,,0.00,Rainwise IP-100,2013-05-02 07:52:00,
2013-05-02 03:57:00,46.4,29.0,30.45,WSW,247,0.0,0.0,53,0.00,,,0.00,Rainwise IP-100,2013-05-02 07:57:00,
2013-05-02 04:02:00,46.7,31.0,30.45,WSW,247,0.0,0.0,52,0.00,,,0.00,Rainwise IP-100,2013-05-02 08:02:00,
2013-05-02 04:07:00,46.9,29.0,30.45,WSW,247,0.0,0.0,51,0.00,,,0.00,Rainwise IP-100,2013-05-02 08:07:00,
2013-05-02 04:12:00,46.9,29.0,30.45,WSW,247,0.0,0.0,51,0.00,,,0.00,Rainwise IP-100,2013-05-02 08:12:00,
2013-05-02 04:17:00,46.8,29.0,30.45,WSW,247,0.0,2.1,51,0.00,,,0.00,Rainwise IP-100,2013-05-02 08:17:00,
2013-05-02 04:22:00,46.8,29.0,30.46,WSW,247,1.4,1.4,51,0.00,,,0.00,Rainwise IP-100,2013-05-02 08:22:00,
2013-05-02 04:27:00,47.0,29.0,30.46,WSW,247,0.0,1.6,51,0.00,,,0.00,Rainwise IP-100,2013-05-02 08:27:00,
2013-05-02 04:32:00,47.0,29.0,30.45,WSW,247,0.0,0.0,51,0.00,,,0.00,Rainwise IP-100,2013-05-02 08:32:00,
2013-05-02 04:37:00,46.5,29.0,30.45,WSW,247,0.0,0.0,51,0.00,,,0.00,Rainwise IP-100,2013-05-02 08:37:00,
2013-05-02 04:42:00,46.2,29.0,30.45,WSW,247,0.0,0.0,51,0.00,,,0.00,Rainwise IP-100,2013-05-02 08:42:00,
2013-05-02 04:47:00,46.3,29.0,30.45,ENE,67,0.0,3.3,51,0.00,,,0.00,Rainwise IP-100,2013-05-02 08:47:00,
2013-05-02 04:52:00,46.8,29.0,30.45,ENE,67,0.0,0.0,50,0.00,,,0.00,Rainwise IP-100,2013-05-02 08:52:00,
2013-05-02 04:57:00,47.4,29.0,30.46,ENE,67,0.0,0.0,49,0.00,,,0.00,Rainwise IP-100,2013-05-02 08:57:00,
2013-05-02 05:02:00,47.8,29.0,30.46,ENE,67,0.0,0.0,47,0.00,,,0.00,Rainwise IP-100,2013-05-02 09:02:00,
2013-05-02 05:07:00,47.8,29.0,30.45,ENE,67,1.4,2.6,47,0.00,,,0.00,Rainwise IP-100,2013-05-02 09:07:00,
2013-05-02 05:12:00,47.7,29.0,30.46,ENE,67,1.4,2.6,48,0.00,,,0.00,Rainwise IP-100,2013-05-02 09:12:00,
2013-05-02 05:17:00,47.7,31.0,30.46,NNE,22,1.9,2.8,50,0.00,,,0.00,Rainwise IP-100,2013-05-02 09:17:00,
2013-05-02 05:22:00,47.2,32.0,30.46,NNE,22,2.8,4.0,56,0.00,,,0.00,Rainwise IP-100,2013-05-02 09:22:00,
2013-05-02 05:27:00,46.2,35.0,30.46,ENE,67,2.6,4.2,65,0.00,,,0.00,Rainwise IP-100,2013-05-02 09:27:00,
2013-05-02 05:32:00,45.1,37.0,30.46,ENE,67,2.8,4.7,72,0.00,,,0.00,Rainwise IP-100,2013-05-02 09:32:00,
2013-05-02 05:37:00,44.2,37.0,30.46,NE,45,2.3,4.7,76,0.00,,,0.00,Rainwise IP-100,2013-05-02 09:37:00,
2013-05-02 05:42:00,43.7,38.0,30.46,East,90,2.3,3.0,79,0.00,,,0.00,Rainwise IP-100,2013-05-02 09:42:00,
2013-05-02 05:47:00,43.5,38.0,30.46,ENE,67,1.6,4.2,80,0.00,,,0.00,Rainwise IP-100,2013-05-02 09:47:00,
2013-05-02 05:52:00,43.6,38.0,30.46,NNE,22,2.3,3.5,80,0.00,,,0.00,Rainwise IP-100,2013-05-02 09:52:00,
2013-05-02 05:57:00,43.8,38.0,30.47,ENE,67,2.1,4.2,78,0.00,,,0.00,Rainwise IP-100,2013-05-02 09:57:00,
2013-05-02 06:02:00,44.3,37.0,30.47,ENE,67,2.8,3.3,75,0.00,,,0.00,Rainwise IP-100,2013-05-02 10:02:00,
2013-05-02 06:07:00,44.9,37.0,30.47,East,90,2.6,4.0,72,0.00,,,0.00,Rainwise IP-100,2013-05-02 10:07:00,
2013-05-02 06:12:00,45.4,36.0,30.47,SSE,157,2.1,6.5,69,0.00,,,0.00,Rainwise IP-100,2013-05-02 10:12:00,
2013-05-02 06:17:00,45.6,36.0,30.47,NNE,22,2.3,7.0,68,0.00,,,0.00,Rainwise IP-100,2013-05-02 10:17:00,
2013-05-02 06:22:00,45.6,36.0,30.47,NNE,22,1.9,4.0,67,0.00,,,0.00,Rainwise IP-100,2013-05-02 10:22:00,
2013-05-02 06:27:00,45.8,35.0,30.47,ENE,67,1.6,3.3,65,0.00,,,0.00,Rainwise IP-100,2013-05-02 10:27:00,
2013-05-02 06:32:00,46.0,35.0,30.48,ENE,67,3.7,4.4,64,0.00,,,0.00,Rainwise IP-100,2013-05-02 10:32:00,
2013-05-02 06:37:00,46.1,35.0,30.47,ENE,67,2.3,4.9,63,0.00,,,0.00,Rainwise IP-100,2013-05-02 10:37:00,
2013-05-02 06:42:00,46.2,33.0,30.47,ESE,112,1.4,3.7,62,0.00,,,0.00,Rainwise IP-100,2013-05-02 10:42:00,
2013-05-02 06:47:00,46.4,33.0,30.47,NNE,22,4.2,4.2,62,0.00,,,0.00,Rainwise IP-100,2013-05-02 10:47:00,
2013-05-02 06:52:00,46.5,35.0,30.48,East,90,2.1,4.2,63,0.00,,,0.00,Rainwise IP-100,2013-05-02 10:52:00,
2013-05-02 06:57:00,46.7,35.0,30.48,ESE,112,2.8,6.5,63,0.00,,,0.00,Rainwise IP-100,2013-05-02 10:57:00,
2013-05-02 07:02:00,46.9,35.0,30.48,North,360,0.0,4.7,64,0.00,,,0.00,Rainwise IP-100,2013-05-02 11:02:00,
2013-05-02 07:07:00,46.9,36.0,30.48,ESE,112,1.9,4.2,65,0.00,,,0.00,Rainwise IP-100,2013-05-02 11:07:00,
2013-05-02 07:12:00,46.9,37.0,30.48,ESE,112,1.9,7.0,68,0.00,,,0.00,Rainwise IP-100,2013-05-02 11:12:00,
2013-05-02 07:17:00,47.0,37.0,30.48,ESE,112,1.2,7.0,69,0.00,,,0.00,Rainwise IP-100,2013-05-02 11:17:00,
2013-05-02 07:22:00,47.1,38.0,30.49,ENE,67,3.5,4.9,71,0.00,,,0.00,Rainwise IP-100,2013-05-02 11:22:00,
2013-05-02 07:27:00,47.1,38.0,30.49,East,90,1.9,5.4,71,0.00,,,0.00,Rainwise IP-100,2013-05-02 11:27:00,
2013-05-02 07:32:00,47.2,38.0,30.49,ESE,112,1.9,4.7,72,0.00,,,0.00,Rainwise IP-100,2013-05-02 11:32:00,
2013-05-02 07:37:00,47.2,38.0,30.50,ENE,67,1.6,4.4,72,0.00,,,0.00,Rainwise IP-100,2013-05-02 11:37:00,
2013-05-02 07:42:00,47.2,38.0,30.50,ENE,67,1.9,4.4,72,0.00,,,0.00,Rainwise IP-100,2013-05-02 11:42:00,
2013-05-02 07:47:00,47.3,39.0,30.50,NE,45,2.8,4.2,72,0.00,,,0.00,Rainwise IP-100,2013-05-02 11:47:00,
2013-05-02 07:52:00,47.2,38.0,30.49,NNE,22,4.4,4.7,72,0.00,,,0.00,Rainwise IP-100,2013-05-02 11:52:00,
2013-05-02 07:57:00,47.1,38.0,30.49,SSE,157,2.3,5.6,72,0.00,,,0.00,Rainwise IP-100,2013-05-02 11:57:00,
2013-05-02 08:02:00,47.0,38.0,30.49,NNE,22,1.9,5.1,72,0.00,,,0.00,Rainwise IP-100,2013-05-02 12:02:00,
2013-05-02 08:07:00,47.1,38.0,30.50,ENE,67,3.5,5.8,72,0.00,,,0.00,Rainwise IP-100,2013-05-02 12:07:00,
2013-05-02 08:12:00,47.3,39.0,30.50,ENE,67,1.9,4.4,72,0.00,,,0.00,Rainwise IP-100,2013-05-02 12:12:00,
2013-05-02 08:17:00,47.5,39.0,30.50,ESE,112,1.6,4.9,72,0.00,,,0.00,Rainwise IP-100,2013-05-02 12:17:00,
2013-05-02 08:22:00,47.8,39.0,30.50,ESE,112,1.9,4.0,71,0.00,,,0.00,Rainwise IP-100,2013-05-02 12:22:00,
2013-05-02 08:27:00,48.1,39.0,30.50,ESE,112,2.8,4.9,71,0.00,,,0.00,Rainwise IP-100,2013-05-02 12:27:00,
2013-05-02 08:32:00,48.3,39.0,30.50,SE,135,0.0,4.7,72,0.00,,,0.00,Rainwise IP-100,2013-05-02 12:32:00,
2013-05-02 08:37:00,48.3,39.0,30.50,ENE,67,2.3,6.5,72,0.00,,,0.00,Rainwise IP-100,2013-05-02 12:37:00,
2013-05-02 08:42:00,48.2,40.0,30.50,ESE,112,3.5,7.2,73,0.00,,,0.00,Rainwise IP-100,2013-05-02 12:42:00,
2013-05-02 08:47:00,48.2,40.0,30.50,ESE,112,2.8,5.4,73,0.00,,,0.00,Rainwise IP-100,2013-05-02 12:47:00,
2013-05-02 08:52:00,48.3,40.0,30.50,East,90,2.6,6.3,73,0.00,,,0.00,Rainwise IP-100,2013-05-02 12:52:00,
2013-05-02 08:57:00,48.6,41.0,30.50,ESE,112,2.8,4.7,74,0.00,,,0.00,Rainwise IP-100,2013-05-02 12:57:00,
2013-05-02 09:02:00,48.8,41.0,30.50,East,90,4.2,6.5,74,0.00,,,0.00,Rainwise IP-100,2013-05-02 13:02:00,
2013-05-02 09:07:00,48.6,41.0,30.50,SSE,157,3.3,6.5,73,0.00,,,0.00,Rainwise IP-100,2013-05-02 13:07:00,
2013-05-02 09:12:00,48.6,41.0,30.50,ESE,112,4.4,6.1,74,0.00,,,0.00,Rainwise IP-100,2013-05-02 13:12:00,
2013-05-02 09:17:00,48.9,41.0,30.50,ESE,112,3.3,7.2,74,0.00,,,0.00,Rainwise IP-100,2013-05-02 13:17:00,
2013-05-02 09:22:00,49.3,41.0,30.50,East,90,1.9,6.8,73,0.00,,,0.00,Rainwise IP-100,2013-05-02 13:22:00,
2013-05-02 09:27:00,49.9,41.0,30.51,SE,135,5.8,5.8,73,0.00,,,0.00,Rainwise IP-100,2013-05-02 13:27:00,
2013-05-02 09:32:00,50.2,41.0,30.50,ESE,112,3.3,7.2,72,0.00,,,0.00,Rainwise IP-100,2013-05-02 13:32:00,
2013-05-02 09:37:00,50.5,42.0,30.51,ENE,67,4.7,5.1,72,0.00,,,0.00,Rainwise IP-100,2013-05-02 13:37:00,
2013-05-02 09:42:00,51.1,42.0,30.51,ENE,67,8.2,8.2,71,0.00,,,0.00,Rainwise IP-100,2013-05-02 13:42:00,
2013-05-02 09:47:00,51.2,42.0,30.51,ESE,112,1.9,10.0,70,0.00,,,0.00,Rainwise IP-100,2013-05-02 13:47:00,
2013-05-02 09:52:00,51.2,42.0,30.52,East,90,4.7,7.7,70,0.00,,,0.00,Rainwise IP-100,2013-05-02 13:52:00,
2013-05-02 09:57:00,51.5,42.0,30.51,East,90,4.9,7.9,70,0.00,,,0.00,Rainwise IP-100,2013-05-02 13:57:00,
2013-05-02 10:02:00,52.0,42.0,30.51,ESE,112,3.5,8.6,69,0.00,,,0.00,Rainwise IP-100,2013-05-02 14:02:00,
2013-05-02 10:07:00,52.2,42.0,30.52,East,90,5.6,8.4,69,0.00,,,0.00,Rainwise IP-100,2013-05-02 14:07:00,
2013-05-02 10:12:00,52.6,42.0,30.52,East,90,8.2,8.9,68,0.00,,,0.00,Rainwise IP-100,2013-05-02 14:12:00,
2013-05-02 10:17:00,53.3,42.0,30.51,ESE,112,2.3,8.2,67,0.00,,,0.00,Rainwise IP-100,2013-05-02 14:17:00,
2013-05-02 10:22:00,53.7,42.0,30.51,ESE,112,2.6,8.4,66,0.00,,,0.00,Rainwise IP-100,2013-05-02 14:22:00,
2013-05-02 10:27:00,53.8,42.0,30.51,ESE,112,4.0,9.8,65,0.00,,,0.00,Rainwise IP-100,2013-05-02 14:27:00,
2013-05-02 10:32:00,53.8,42.0,30.52,East,90,6.3,10.5,65,0.00,,,0.00,Rainwise IP-100,2013-05-02 14:32:00,
2013-05-02 10:37:00,54.1,42.0,30.52,ESE,112,1.6,8.6,65,0.00,,,0.00,Rainwise IP-100,2013-05-02 14:37:00,
2013-05-02 10:39:00,54.2,42.0,30.52,ENE,67,4.9,7.2,64,0.00,,,0.00,Rainwise IP-100,2013-05-02 14:39:00,
2013-05-02 10:44:00,55.3,43.0,30.52,ESE,112,2.8,9.3,63,0.00,,,0.00,Rainwise IP-100,2013-05-02 14:44:00,
2013-05-02 10:49:00,56.0,43.0,30.52,ESE,112,2.3,9.3,62,0.00,,,0.00,Rainwise IP-100,2013-05-02 14:49:00,
2013-05-02 10:54:00,56.4,43.0,30.52,East,90,4.0,11.7,61,0.00,,,0.00,Rainwise IP-100,2013-05-02 14:54:00,
2013-05-02 10:59:00,56.5,43.0,30.52,East,90,6.8,8.6,60,0.00,,,0.00,Rainwise IP-100,2013-05-02 14:59:00,
2013-05-02 11:04:00,56.5,43.0,30.52,North,360,0.0,7.2,60,0.00,,,0.00,Rainwise IP-100,2013-05-02 15:04:00,
2013-05-02 11:09:00,57.2,43.0,30.52,ESE,112,1.6,7.5,60,0.00,,,0.00,Rainwise IP-100,2013-05-02 15:09:00,
2013-05-02 11:14:00,57.2,43.0,30.52,ESE,112,5.8,6.8,59,0.00,,,0.00,Rainwise IP-100,2013-05-02 15:14:00,
2013-05-02 11:19:00,56.9,43.0,30.52,ENE,67,4.0,7.7,59,0.00,,,0.00,Rainwise IP-100,2013-05-02 15:19:00,
2013-05-02 11:24:00,57.2,43.0,30.52,ESE,112,3.0,10.0,59,0.00,,,0.00,Rainwise IP-100,2013-05-02 15:24:00,
2013-05-02 11:29:00,57.6,43.0,30.52,ESE,112,4.2,13.1,58,0.00,,,0.00,Rainwise IP-100,2013-05-02 15:29:00,
2013-05-02 11:34:00,57.4,42.0,30.52,ESE,112,2.1,11.7,57,0.00,,,0.00,Rainwise IP-100,2013-05-02 15:34:00,
2013-05-02 11:39:00,57.7,42.0,30.52,ESE,112,6.5,9.8,57,0.00,,,0.00,Rainwise IP-100,2013-05-02 15:39:00,
2013-05-02 11:44:00,58.7,43.0,30.52,SE,135,4.2,7.2,56,0.00,,,0.00,Rainwise IP-100,2013-05-02 15:44:00,
2013-05-02 11:49:00,59.2,43.0,30.52,SSE,157,4.2,7.0,55,0.00,,,0.00,Rainwise IP-100,2013-05-02 15:49:00,
2013-05-02 11:54:00,59.9,44.0,30.52,SSW,202,1.9,8.4,55,0.00,,,0.00,Rainwise IP-100,2013-05-02 15:54:00,
2013-05-02 11:59:00,60.0,44.0,30.51,SSW,202,1.4,6.5,55,0.00,,,0.00,Rainwise IP-100,2013-05-02 15:59:00,
2013-05-02 12:04:00,59.6,44.0,30.51,North,360,0.0,11.0,57,0.00,,,0.00,Rainwise IP-100,2013-05-02 16:04:00,
2013-05-02 12:09:00,59.5,45.0,30.51,SSW,202,10.7,10.7,58,0.00,,,0.00,Rainwise IP-100,2013-05-02 16:09:00,
2013-05-02 12:14:00,59.4,45.0,30.51,SSE,157,3.7,10.7,58,0.00,,,0.00,Rainwise IP-100,2013-05-02 16:14:00,
2013-05-02 12:19:00,59.4,45.0,30.51,South,180,1.2,7.2,58,0.00,,,0.00,Rainwise IP-100,2013-05-02 16:19:00,
2013-05-02 12:24:00,59.5,45.0,30.51,SSE,157,7.2,8.4,58,0.00,,,0.00,Rainwise IP-100,2013-05-02 16:24:00,
2013-05-02 12:29:00,59.1,44.0,30.51,South,180,5.8,8.4,58,0.00,,,0.00,Rainwise IP-100,2013-05-02 16:29:00,
2013-05-02 12:34:00,58.5,44.0,30.51,SSW,202,2.6,9.6,58,0.00,,,0.00,Rainwise IP-100,2013-05-02 16:34:00,
2013-05-02 12:39:00,58.5,45.0,30.51,ESE,112,1.9,9.1,59,0.00,,,0.00,Rainwise IP-100,2013-05-02 16:39:00,
2013-05-02 12:44:00,58.8,45.0,30.51,SE,135,1.2,6.1,59,0.00,,,0.00,Rainwise IP-100,2013-05-02 16:44:00,
2013-05-02 12:49:00,58.9,44.0,30.51,SSE,157,3.5,8.2,58,0.00,,,0.00,Rainwise IP-100,2013-05-02 16:49:00,
2013-05-02 12:54:00,58.8,44.0,30.51,ESE,112,1.6,4.9,58,0.00,,,0.00,Rainwise IP-100,2013-05-02 16:54:00,
2013-05-02 12:59:00,59.4,44.0,30.51,ENE,67,6.1,6.3,57,0.00,,,0.00,Rainwise IP-100,2013-05-02 16:59:00,
2013-05-02 13:04:00,59.9,44.0,30.51,ESE,112,7.5,8.9,55,0.00,,,0.00,Rainwise IP-100,2013-05-02 17:04:00,
2013-05-02 13:09:00,59.8,44.0,30.50,SSE,157,2.1,11.0,55,0.00,,,0.00,Rainwise IP-100,2013-05-02 17:09:00,
2013-05-02 13:14:00,60.8,44.0,30.50,ESE,112,4.7,10.5,54,0.00,,,0.00,Rainwise IP-100,2013-05-02 17:14:00,
2013-05-02 13:19:00,61.8,44.0,30.50,North,360,4.0,9.3,52,0.00,,,0.00,Rainwise IP-100,2013-05-02 17:19:00,
2013-05-02 13:24:00,61.9,42.0,30.50,SE,135,7.5,7.5,49,0.00,,,0.00,Rainwise IP-100,2013-05-02 17:24:00,
2013-05-02 13:29:00,62.6,42.0,30.50,SSE,157,1.4,9.3,47,0.00,,,0.00,Rainwise IP-100,2013-05-02 17:29:00,
2013-05-02 13:34:00,63.3,40.0,30.50,NW,315,1.4,7.2,42,0.00,,,0.00,Rainwise IP-100,2013-05-02 17:34:00,
2013-05-02 13:39:00,63.7,37.0,30.50,NNE,22,5.8,6.1,38,0.00,,,0.00,Rainwise IP-100,2013-05-02 17:39:00,
2013-05-02 13:44:00,63.5,36.0,30.50,ESE,112,3.7,7.2,36,0.00,,,0.00,Rainwise IP-100,2013-05-02 17:44:00,
2013-05-02 13:49:00,63.3,36.0,30.49,ENE,67,8.4,9.8,35,0.00,,,0.00,Rainwise IP-100,2013-05-02 17:49:00,
2013-05-02 13:54:00,64.2,35.0,30.50,North,360,2.1,12.4,34,0.00,,,0.00,Rainwise IP-100,2013-05-02 17:54:00,
2013-05-02 13:59:00,65.1,35.0,30.49,NNE,22,2.1,7.5,33,0.00,,,0.00,Rainwise IP-100,2013-05-02 17:59:00,
2013-05-02 14:04:00,65.1,35.0,30.50,NNE,22,3.0,6.8,33,0.00,,,0.00,Rainwise IP-100,2013-05-02 18:04:00,
2013-05-02 14:09:00,65.0,35.0,30.50,NE,45,1.6,9.3,32,0.00,,,0.00,Rainwise IP-100,2013-05-02 18:09:00,
2013-05-02 14:14:00,65.4,35.0,30.50,ESE,112,5.4,11.9,31,0.00,,,0.00,Rainwise IP-100,2013-05-02 18:14:00,
2013-05-02 14:19:00,65.4,32.0,30.49,ESE,112,4.7,14.9,29,0.00,,,0.00,Rainwise IP-100,2013-05-02 18:19:00,
2013-05-02 14:24:00,65.3,32.0,30.49,ENE,67,3.5,8.9,28,0.00,,,0.00,Rainwise IP-100,2013-05-02 18:24:00,
2013-05-02 14:29:00,65.4,32.0,30.49,East,90,4.4,10.0,28,0.00,,,0.00,Rainwise IP-100,2013-05-02 18:29:00,
2013-05-02 14:34:00,65.0,32.0,30.49,NNE,22,2.6,13.3,29,0.00,,,0.00,Rainwise IP-100,2013-05-02 18:34:00,
2013-05-02 14:39:00,64.7,32.0,30.49,North,360,6.1,8.9,29,0.00,,,0.00,Rainwise IP-100,2013-05-02 18:39:00,
2013-05-02 14:44:00,64.2,31.0,30.49,NNE,22,5.4,10.0,29,0.00,,,0.00,Rainwise IP-100,2013-05-02 18:44:00,
2013-05-02 14:49:00,64.0,31.0,30.49,NNE,22,5.8,7.7,28,0.00,,,0.00,Rainwise IP-100,2013-05-02 18:49:00,
2013-05-02 14:54:00,64.4,31.0,30.48,North,360,3.0,10.3,28,0.00,,,0.00,Rainwise IP-100,2013-05-02 18:54:00,
2013-05-02 14:59:00,65.2,31.0,30.48,WNW,292,3.5,7.7,28,0.00,,,0.00,Rainwise IP-100,2013-05-02 18:59:00,
2013-05-02 15:04:00,65.7,32.0,30.48,NW,315,2.8,12.4,28,0.00,,,0.00,Rainwise IP-100,2013-05-02 19:04:00,
2013-05-02 15:09:00,65.3,32.0,30.48,NNW,337,4.2,10.5,28,0.00,,,0.00,Rainwise IP-100,2013-05-02 19:09:00,
2013-05-02 15:14:00,65.0,32.0,30.48,SSE,157,3.0,9.6,29,0.00,,,0.00,Rainwise IP-100,2013-05-02 19:14:00,
2013-05-02 15:19:00,64.9,32.0,30.48,ENE,67,2.8,11.4,29,0.00,,,0.00,Rainwise IP-100,2013-05-02 19:19:00,
2013-05-02 15:24:00,64.8,32.0,30.48,NNE,22,11.2,11.2,29,0.00,,,0.00,Rainwise IP-100,2013-05-02 19:24:00,
2013-05-02 15:29:00,65.0,32.0,30.48,ENE,67,3.3,12.4,29,0.00,,,0.00,Rainwise IP-100,2013-05-02 19:29:00,
2013-05-02 15:34:00,65.5,32.0,30.47,ENE,67,6.5,9.3,29,0.00,,,0.00,Rainwise IP-100,2013-05-02 19:34:00,
2013-05-02 15:39:00,65.6,31.0,30.48,SSW,202,1.4,11.9,27,0.00,,,0.00,Rainwise IP-100,2013-05-02 19:39:00,
2013-05-02 15:44:00,65.3,29.0,30.48,ESE,112,4.7,11.9,26,0.00,,,0.00,Rainwise IP-100,2013-05-02 19:44:00,
2013-05-02 15:49:00,65.1,29.0,30.47,ESE,112,6.3,10.3,26,0.00,,,0.00,Rainwise IP-100,2013-05-02 19:49:00,
2013-05-02 15:54:00,64.9,29.0,30.48,ESE,112,7.5,9.3,26,0.00,,,0.00,Rainwise IP-100,2013-05-02 19:54:00,
2013-05-02 15:59:00,65.3,29.0,30.48,ENE,67,1.6,10.7,26,0.00,,,0.00,Rainwise IP-100,2013-05-02 19:59:00,
2013-05-02 16:04:00,66.0,29.0,30.47,ESE,112,6.3,10.3,25,0.00,,,0.00,Rainwise IP-100,2013-05-02 20:04:00,
2013-05-02 16:09:00,66.4,29.0,30.47,NNW,337,4.4,8.9,25,0.00,,,0.00,Rainwise IP-100,2013-05-02 20:09:00,
2013-05-02 16:14:00,66.4,29.0,30.47,NW,315,4.7,12.1,24,0.00,,,0.00,Rainwise IP-100,2013-05-02 20:14:00,
2013-05-02 16:19:00,66.0,28.0,30.47,ESE,112,4.2,10.7,24,0.00,,,0.00,Rainwise IP-100,2013-05-02 20:19:00,
2013-05-02 16:24:00,65.6,26.0,30.47,NE,45,7.2,11.7,23,0.00,,,0.00,Rainwise IP-100,2013-05-02 20:24:00,
2013-05-02 16:29:00,64.9,26.0,30.47,ENE,67,4.2,14.5,22,0.00,,,0.00,Rainwise IP-100,2013-05-02 20:29:00,
2013-05-02 16:34:00,64.7,24.0,30.47,NNE,22,2.3,14.5,22,0.00,,,0.00,Rainwise IP-100,2013-05-02 20:34:00,
2013-05-02 16:39:00,64.9,26.0,30.48,East,90,3.3,14.0,22,0.00,,,0.00,Rainwise IP-100,2013-05-02 20:39:00,
2013-05-02 16:44:00,64.7,24.0,30.48,ENE,67,3.7,12.8,22,0.00,,,0.00,Rainwise IP-100,2013-05-02 20:44:00,
2013-05-02 16:49:00,63.3,28.0,30.48,ESE,112,6.8,16.8,25,0.00,,,0.00,Rainwise IP-100,2013-05-02 20:49:00,
2013-05-02 16:54:00,61.8,31.0,30.48,SE,135,9.1,14.7,30,0.00,,,0.00,Rainwise IP-100,2013-05-02 20:54:00,
2013-05-02 16:59:00,61.0,31.0,30.48,ESE,112,2.8,11.2,32,0.00,,,0.00,Rainwise IP-100,2013-05-02 20:59:00,
2013-05-02 17:04:00,60.1,32.0,30.48,ESE,112,7.2,10.7,35,0.00,,,0.00,Rainwise IP-100,2013-05-02 21:04:00,
2013-05-02 17:09:00,59.1,35.0,30.49,ESE,112,6.8,14.0,39,0.00,,,0.00,Rainwise IP-100,2013-05-02 21:09:00,
2013-05-02 17:14:00,57.5,35.0,30.49,SSE,157,5.1,14.9,42,0.00,,,0.00,Rainwise IP-100,2013-05-02 21:14:00,
2013-05-02 17:19:00,56.1,35.0,30.49,SSE,157,9.1,11.0,45,0.00,,,0.00,Rainwise IP-100,2013-05-02 21:19:00,
2013-05-02 17:24:00,55.4,36.0,30.49,ESE,112,5.1,9.8,47,0.00,,,0.00,Rainwise IP-100,2013-05-02 21:24:00,
2013-05-02 17:29:00,55.3,36.0,30.49,SSE,157,2.8,9.1,48,0.00,,,0.00,Rainwise IP-100,2013-05-02 21:29:00,
2013-05-02 17:34:00,55.4,36.0,30.49,ESE,112,4.7,9.8,48,0.00,,,0.00,Rainwise IP-100,2013-05-02 21:34:00,
2013-05-02 17:39:00,55.5,37.0,30.49,SE,135,4.0,9.3,48,0.00,,,0.00,Rainwise IP-100,2013-05-02 21:39:00,
2013-05-02 17:44:00,55.0,37.0,30.49,SSE,157,3.0,9.6,49,0.00,,,0.00,Rainwise IP-100,2013-05-02 21:44:00,
2013-05-02 17:49:00,54.7,36.0,30.50,ESE,112,4.0,8.6,49,0.00,,,0.00,Rainwise IP-100,2013-05-02 21:49:00,
2013-05-02 17:54:00,54.9,37.0,30.49,SSE,157,3.5,7.9,50,0.00,,,0.00,Rainwise IP-100,2013-05-02 21:54:00,
2013-05-02 17:59:00,54.7,37.0,30.49,ESE,112,5.8,9.6,50,0.00,,,0.00,Rainwise IP-100,2013-05-02 21:59:00,
2013-05-02 18:04:00,54.5,37.0,30.50,East,90,5.6,10.3,51,0.00,,,0.00,Rainwise IP-100,2013-05-02 22:04:00,
2013-05-02 18:09:00,54.0,36.0,30.50,ESE,112,5.8,11.4,51,0.00,,,0.00,Rainwise IP-100,2013-05-02 22:09:00,
2013-05-02 18:14:00,53.4,37.0,30.50,SE,135,3.7,10.7,53,0.00,,,0.00,Rainwise IP-100,2013-05-02 22:14:00,
2013-05-02 18:17:00,53.1,36.0,30.50,SE,135,4.7,15.4,53,0.00,,,0.00,Rainwise IP-100,2013-05-02 22:17:00,
2013-05-02 18:22:00,52.5,37.0,30.50,ESE,112,3.0,7.9,55,0.00,,,0.00,Rainwise IP-100,2013-05-02 22:22:00,
2013-05-02 18:27:00,52.3,37.0,30.50,SE,135,2.1,7.5,56,0.00,,,0.00,Rainwise IP-100,2013-05-02 22:27:00,
2013-05-02 18:32:00,52.3,37.0,30.50,SSE,157,4.0,6.5,57,0.00,,,0.00,Rainwise IP-100,2013-05-02 22:32:00,
2013-05-02 18:37:00,52.1,37.0,30.50,ESE,112,2.6,5.8,57,0.00,,,0.00,Rainwise IP-100,2013-05-02 22:37:00,
2013-05-02 18:42:00,51.6,38.0,30.50,SE,135,1.4,5.4,58,0.00,,,0.00,Rainwise IP-100,2013-05-02 22:42:00,
2013-05-02 18:47:00,51.4,37.0,30.50,SE,135,1.2,1.9,59,0.00,,,0.00,Rainwise IP-100,2013-05-02 22:47:00,
2013-05-02 18:52:00,51.4,37.0,30.50,SE,135,1.4,2.8,59,0.00,,,0.00,Rainwise IP-100,2013-05-02 22:52:00,
2013-05-02 18:57:00,51.1,38.0,30.50,SSW,202,0.0,3.3,60,0.00,,,0.00,Rainwise IP-100,2013-05-02 22:57:00,
2013-05-02 19:02:00,50.8,38.0,30.50,SSE,157,0.0,2.1,60,0.00,,,0.00,Rainwise IP-100,2013-05-02 23:02:00,
2013-05-02 19:07:00,50.4,38.0,30.50,WSW,247,0.0,2.1,61,0.00,,,0.00,Rainwise IP-100,2013-05-02 23:07:00,
2013-05-02 19:12:00,50.1,37.0,30.51,South,180,0.0,1.9,62,0.00,,,0.00,Rainwise IP-100,2013-05-02 23:12:00,
2013-05-02 19:17:00,49.9,38.0,30.51,ESE,112,2.6,4.2,63,0.00,,,0.00,Rainwise IP-100,2013-05-02 23:17:00,
2013-05-02 19:22:00,49.6,38.0,30.51,SSW,202,2.6,5.1,63,0.00,,,0.00,Rainwise IP-100,2013-05-02 23:22:00,
2013-05-02 19:27:00,49.3,37.0,30.51,SE,135,3.3,3.5,64,0.00,,,0.00,Rainwise IP-100,2013-05-02 23:27:00,
2013-05-02 19:32:00,48.9,38.0,30.51,ESE,112,0.0,4.2,65,0.00,,,0.00,Rainwise IP-100,2013-05-02 23:32:00,
2013-05-02 19:37:00,48.5,38.0,30.51,SSE,157,2.1,3.7,65,0.00,,,0.00,Rainwise IP-100,2013-05-02 23:37:00,
2013-05-02 19:42:00,48.2,37.0,30.51,SE,135,2.1,4.4,66,0.00,,,0.00,Rainwise IP-100,2013-05-02 23:42:00,
2013-05-02 19:47:00,47.9,38.0,30.52,SE,135,4.4,7.5,67,0.00,,,0.00,Rainwise IP-100,2013-05-02 23:47:00,
2013-05-02 19:52:00,47.7,37.0,30.52,ESE,112,1.2,5.6,67,0.00,,,0.00,Rainwise IP-100,2013-05-02 23:52:00,
2013-05-02 19:57:00,47.4,37.0,30.52,SSE,157,0.0,2.8,68,0.00,,,0.00,Rainwise IP-100,2013-05-02 23:57:00,
2013-05-02 20:02:00,47.2,37.0,30.52,ESE,112,2.8,3.0,68,0.00,,,0.00,Rainwise IP-100,2013-05-03 00:02:00,
2013-05-02 20:07:00,47.1,37.0,30.52,ESE,112,2.3,2.8,68,0.00,,,0.00,Rainwise IP-100,2013-05-03 00:07:00,
2013-05-02 20:12:00,47.0,37.0,30.52,ESE,112,1.4,3.7,68,0.00,,,0.00,Rainwise IP-100,2013-05-03 00:12:00,
2013-05-02 20:17:00,47.0,37.0,30.52,East,90,2.1,5.8,68,0.00,,,0.00,Rainwise IP-100,2013-05-03 00:17:00,
2013-05-02 20:22:00,46.9,37.0,30.52,East,90,0.0,7.2,68,0.00,,,0.00,Rainwise IP-100,2013-05-03 00:22:00,
2013-05-02 20:27:00,46.7,37.0,30.53,East,90,4.7,4.9,68,0.00,,,0.00,Rainwise IP-100,2013-05-03 00:27:00,
2013-05-02 20:32:00,46.6,37.0,30.53,East,90,2.1,5.1,69,0.00,,,0.00,Rainwise IP-100,2013-05-03 00:32:00,
2013-05-02 20:37:00,46.5,37.0,30.53,ESE,112,3.3,7.0,69,0.00,,,0.00,Rainwise IP-100,2013-05-03 00:37:00,
2013-05-02 20:42:00,46.6,37.0,30.53,ESE,112,1.6,6.5,69,0.00,,,0.00,Rainwise IP-100,2013-05-03 00:42:00,
2013-05-02 20:47:00,46.8,37.0,30.54,North,360,0.0,4.0,68,0.00,,,0.00,Rainwise IP-100,2013-05-03 00:47:00,
2013-05-02 20:52:00,46.6,37.0,30.53,East,90,2.1,4.4,69,0.00,,,0.00,Rainwise IP-100,2013-05-03 00:52:00,
2013-05-02 20:57:00,46.4,36.0,30.54,East,90,2.3,4.4,69,0.00,,,0.00,Rainwise IP-100,2013-05-03 00:57:00,
2013-05-02 21:02:00,46.6,37.0,30.54,East,90,1.6,3.0,69,0.00,,,0.00,Rainwise IP-100,2013-05-03 01:02:00,
2013-05-02 21:06:00,46.6,37.0,30.54,ESE,112,1.2,2.3,69,0.00,,,0.00,Rainwise IP-100,2013-05-03 01:06:00,
2013-05-02 21:11:00,46.5,37.0,30.55,ENE,67,1.4,3.0,69,0.00,,,0.00,Rainwise IP-100,2013-05-03 01:11:00,
2013-05-02 21:16:00,46.3,37.0,30.55,East,90,1.4,3.7,70,0.00,,,0.00,Rainwise IP-100,2013-05-03 01:16:00,
2013-05-02 21:21:00,46.2,37.0,30.54,ENE,67,0.0,2.3,71,0.00,,,0.00,Rainwise IP-100,2013-05-03 01:21:00,
2013-05-02 21:26:00,46.0,37.0,30.55,ENE,67,0.0,2.3,71,0.00,,,0.00,Rainwise IP-100,2013-05-03 01:26:00,
2013-05-02 21:31:00,45.7,37.0,30.55,ENE,67,0.0,1.6,71,0.00,,,0.00,Rainwise IP-100,2013-05-03 01:31:00,
2013-05-02 21:36:00,45.6,37.0,30.55,ENE,67,1.6,2.3,72,0.00,,,0.00,Rainwise IP-100,2013-05-03 01:36:00,
2013-05-02 21:41:00,45.6,37.0,30.55,ENE,67,1.6,2.6,72,0.00,,,0.00,Rainwise IP-100,2013-05-03 01:41:00,
2013-05-02 21:46:00,45.6,38.0,30.55,ENE,67,1.2,2.3,73,0.00,,,0.00,Rainwise IP-100,2013-05-03 01:46:00,
2013-05-02 21:51:00,45.6,38.0,30.55,ENE,67,3.0,3.0,73,0.00,,,0.00,Rainwise IP-100,2013-05-03 01:51:00,
2013-05-02 21:56:00,45.6,38.0,30.55,ENE,67,2.6,5.6,73,0.00,,,0.00,Rainwise IP-100,2013-05-03 01:56:00,
2013-05-02 22:01:00,45.6,38.0,30.55,ENE,67,1.6,4.0,73,0.00,,,0.00,Rainwise IP-100,2013-05-03 02:01:00,
2013-05-02 22:06:00,45.4,37.0,30.55,ENE,67,2.8,4.7,73,0.00,,,0.00,Rainwise IP-100,2013-05-03 02:06:00,
2013-05-02 22:11:00,45.3,37.0,30.55,ESE,112,2.3,4.4,74,0.00,,,0.00,Rainwise IP-100,2013-05-03 02:11:00,
2013-05-02 22:16:00,45.3,37.0,30.55,ESE,112,1.9,4.0,74,0.00,,,0.00,Rainwise IP-100,2013-05-03 02:16:00,
2013-05-02 22:21:00,45.4,37.0,30.55,East,90,2.6,6.5,74,0.00,,,0.00,Rainwise IP-100,2013-05-03 02:21:00,
2013-05-02 22:26:00,45.4,37.0,30.55,East,90,1.4,4.9,74,0.00,,,0.00,Rainwise IP-100,2013-05-03 02:26:00,
2013-05-02 22:31:00,45.4,37.0,30.55,ESE,112,4.4,5.8,74,0.00,,,0.00,Rainwise IP-100,2013-05-03 02:31:00,
2013-05-02 22:36:00,45.3,37.0,30.55,East,90,2.3,7.2,73,0.00,,,0.00,Rainwise IP-100,2013-05-03 02:36:00,
2013-05-02 22:41:00,45.0,37.0,30.55,East,90,8.6,8.6,73,0.00,,,0.00,Rainwise IP-100,2013-05-03 02:41:00,
2013-05-02 22:46:00,44.8,37.0,30.55,ESE,112,1.9,8.6,74,0.00,,,0.00,Rainwise IP-100,2013-05-03 02:46:00,
2013-05-02 22:51:00,44.6,37.0,30.55,ESE,112,2.8,5.6,74,0.00,,,0.00,Rainwise IP-100,2013-05-03 02:51:00,
2013-05-02 22:56:00,44.5,38.0,30.56,East,90,1.6,5.8,75,0.00,,,0.00,Rainwise IP-100,2013-05-03 02:56:00,
2013-05-02 23:01:00,44.3,37.0,30.56,East,90,1.4,4.0,75,0.00,,,0.00,Rainwise IP-100,2013-05-03 03:01:00,
2013-05-02 23:06:00,44.0,37.0,30.56,ESE,112,2.3,7.2,76,0.00,,,0.00,Rainwise IP-100,2013-05-03 03:06:00,
2013-05-02 23:11:00,43.8,37.0,30.56,ESE,112,2.6,4.9,76,0.00,,,0.00,Rainwise IP-100,2013-05-03 03:11:00,
2013-05-02 23:16:00,43.7,37.0,30.56,ESE,112,1.6,4.9,77,0.00,,,0.00,Rainwise IP-100,2013-05-03 03:16:00,
2013-05-02 23:21:00,43.4,37.0,30.56,East,90,4.9,4.9,78,0.00,,,0.00,Rainwise IP-100,2013-05-03 03:21:00,
2013-05-02 23:26:00,43.2,37.0,30.56,ESE,112,1.4,6.5,78,0.00,,,0.00,Rainwise IP-100,2013-05-03 03:26:00,
2013-05-02 23:31:00,43.0,37.0,30.56,ESE,112,2.6,5.8,78,0.00,,,0.00,Rainwise IP-100,2013-05-03 03:31:00,
2013-05-02 23:36:00,42.7,37.0,30.56,ESE,112,2.3,4.0,79,0.00,,,0.00,Rainwise IP-100,2013-05-03 03:36:00,
2013-05-02 23:41:00,42.3,36.0,30.56,East,90,2.1,3.5,79,0.00,,,0.00,Rainwise IP-100,2013-05-03 03:41:00,
2013-05-02 23:46:00,42.0,37.0,30.56,ESE,112,2.1,4.0,80,0.00,,,0.00,Rainwise IP-100,2013-05-03 03:46:00,
2013-05-02 23:51:00,41.8,37.0,30.56,ESE,112,2.3,4.0,81,0.00,,,0.00,Rainwise IP-100,2013-05-03 03:51:00,
2013-05-02 23:56:00,41.7,37.0,30.56,East,90,1.9,3.0,81,0.00,,,0.00,Rainwise IP-100,2013-05-03 03:56:00,